Regional Weather Roundup
Issued by NWS Upton, NY

Current Version | Previous Version | Text Only | Print | Product List | Glossary Off
Versions: 1 2 3 4 5 6 7 8 9 10 11 12 13 14 15 16 17 18 19 20 21 22 23 24 25 26 27 28 29 30 31 32 33 34 35 36 37 38 39 40 41 42 43 44 45 46 47 48 49 50
000 ASUS41 KOKX 241408 RWROKX REGIONAL WEATHER ROUNDUP NATIONAL WEATHER SERVICE NEW YORK NY 1000 AM EDT SUN MAY 24 2015 NOTE: "FAIR" INDICATES FEW OR NO CLOUDS BELOW 12,000 FEET WITH NO SIGNIFICANT WEATHER AND/OR OBSTRUCTIONS TO VISIBILITY. NYZ071-072-176-178-NJZ106-104-241500- NEW YORK CITY METRO AREA CITY SKY/WX TMP DP RH WIND PRES REMARKS CENTRAL PARK SUNNY 67 43 41 MISG 30.38F LAGUARDIA APRT MOSUNNY 69 42 37 SW9 30.35F KENNEDY INTL MOSUNNY 68 48 48 SW12 30.37F NEWARK/LIBERTY PTSUNNY 70 44 39 W13 30.36F BRNX BOT. GARD N/A 68 43 40 W9 30.36F TETERBORO SUNNY 71 42 35 W10G17 30.34F $$ NYZ177-179-078>081-241500- LONG ISLAND NEW YORK CITY SKY/WX TMP DP RH WIND PRES REMARKS FARMINGDALE SUNNY 69 46 43 W10 30.37S ISLIP MOSUNNY 69 45 41 S9G20 30.35S SHIRLEY SUNNY 67 50 54 SW10 30.36F WESTHAMPTON SUNNY 66 52 60 SW8 30.36F MONTAUK POINT N/A 63 52 67 VRB6 30.36F $$ NYZ052-065-067-241500- HUDSON VALLEY CITY SKY/WX TMP DP RH WIND PRES REMARKS WHITE PLAINS SUNNY 67 40 37 W8 30.35S NEWBURGH SUNNY 66 45 45 W13 30.34F MONTGOMERY SUNNY 66 44 45 S8 30.33F POUGHKEEPSIE SUNNY 67 40 37 SW12 30.31F ALBANY MOSUNNY 65 39 38 SE6 30.29F $$ NJZ001-105-106-008-010-013-015-019>022-104-241500- NEW JERSEY CITY SKY/WX TMP DP RH WIND PRES REMARKS NEWARK/LIBERTY PTSUNNY 70 44 39 W13 30.36F TETERBORO SUNNY 71 42 35 W10G17 30.34F CALDWELL SUNNY 68 44 42 VRB3 30.36F MORRISTOWN MOSUNNY 70 46 43 SW9 30.37F SOMERVILLE SUNNY 67 46 47 CALM 30.35F SUSSEX SUNNY 66 42 41 S7 30.35F ANDOVER N/A 65 44 46 SW8 30.36F TRENTON SUNNY 69 49 48 W10 30.38F MILLVILLE SUNNY 68 53 58 SW7 30.41F ATLANTIC CITY SUNNY 69 50 50 SW9 30.41F WRIGHTSTOWN SUNNY 69 54 57 W15 30.36F TOMS RIVER SUNNY N/A N/A N/A SW16 30.38F BELMAR SUNNY 68 48 49 W13G20 30.38F $$ PAZ047>061-062-071-241500- EASTERN PENNSYLVANIA CITY SKY/WX TMP DP RH WIND PRES REMARKS PHILADELPHIA MOSUNNY 68 53 58 SW12 30.39F ALLENTOWN SUNNY 69 45 41 VRB7 30.37F SCRANTON SUNNY 66 39 37 SW10 30.35F $$ CTZ002-004>006-009-010-012-RIZ004-006-007-MAZ004-011-015-241500- SOUTHERN NEW ENGLAND IN CT CITY SKY/WX TMP DP RH WIND PRES REMARKS BRADLEY INTL MOSUNNY 68 41 37 S12 30.29F HARTFORD SUNNY 68 39 34 SW9G16 30.31F DANBURY SUNNY 66 39 37 SW8 30.35F WTRBRY/OXFORD SUNNY 64 43 45 W6 30.34F BRIDGEPORT SUNNY 63 46 54 SW15 30.34F MERIDEN SUNNY 70 38 31 VRB3 30.32F NEW HAVEN SUNNY 60 47 61 SW9 30.34F CHESTER NOT AVBL GROTON SUNNY 59 47 64 SW14 30.33F WILLIMANTIC SUNNY 68 38 33 SW7 30.31F IN RI CITY SKY/WX TMP DP RH WIND PRES REMARKS PROVIDENCE MOSUNNY 70 39 32 VRB5G17 30.30F BLOCK ISLAND SUNNY 57 48 72 SW18 30.35F WESTERLY SUNNY 61 45 55 W10G18 30.34F IN MA CITY SKY/WX TMP DP RH WIND PRES REMARKS BOSTON MOSUNNY 71 36 27 W10G18 30.25F WORCESTER SUNNY 67 34 29 W15 30.29S WESTFIELD SUNNY 66 43 43 S6 30.28 PROVINCETOWN SUNNY 64 46 52 SW14 30.26F NANTUCKET SUNNY 61 52 72 SW22 30.33S $$ ANZ330-335-338-340-345-350-353-355-241500- COASTAL MARINE OBSERVATIONS STATION/POSITION TIME SKY/WX TEMP WIND PRES VSBY WAVE AIR SEA DIR/SP/G HT/PER (UTC) (F) (DEG/KT/KT) (MB) (MI) (FT/S) NY HARB ENTRANCE 1350 56 55 210/ 10/ 10 1028.4 2/ 5 4S FIRE IS 1303 53 N/A 3/ 5 20S FIRE ISLAND 1350 56 55 220/ 10/ 12 1029.1 2/ 4 GREAT SOUTH BAY 1330 58 62 240/ 14/ 16 N/A 23SW MTP 1350 54 53 240/ 16/ 19 1027.9 3/ 5 HUDSON CANYON NOT AVBL KINGS POINT 1300 61 55 290/ 3/ 5 1027.7 CENTRAL LI SOUND 1330 56 52 260/ 12/ 14 N/A EASTERN LI SOUND 1300 54 CALM / 2 N/A ROBBINS REEF 1300 62 260/ 13/ 16 1027.4 $$ >>>>>>>>>>>>>>>>>>>>>>>>>>>> KEY <<<<<<<<<<<<<<<<<<<<<<<<<<< > < > SKY/WX - SKY CONDITION/PRESENT WEATHER < > TMP - TEMPERATURE IN FAHRENHEIT < > DP - DEWPOINT IN FAHRENHEIT < > RH - RELATIVE HUMIDITY IN PERCENT < > WIND - DIRECTION AND SPEED IN MPH < > PRES - MEAN SEA LEVEL PRESSURE IN INCHES OF HG < > WCI - WIND CHILL INDEX < > VSB - VISIBILITY IN MILES < > HX - HEAT INDEX < > TC - TEMPERATURE IN CELSIUS < > VRB - VARIABLE WIND DIRECTION < > < >>>>>>>>>>>>>>>>>>>>>>>>>>>> KEY <<<<<<<<<<<<<<<<<<<<<<<<<<<

USA.gov is the U.S. government's official web portal to all federal, state and local government web resources and services.